LOCATION_NAME,SAMPLE COLLECTION TIME,DOSE EQUIVALENT RATE (nSv/h),GAMMA COUNT RATE R02 (CPM),GAMMA COUNT RATE R03 (CPM),GAMMA COUNT RATE R04 (CPM),GAMMA COUNT RATE R05 (CPM),GAMMA COUNT RATE R06 (CPM),GAMMA COUNT RATE R07 (CPM),GAMMA COUNT RATE R08 (CPM),GAMMA COUNT RATE R09 (CPM),STATUS
IL: AURORA,01/03/2011 15:36:00,,2181.00,1156.00,309.00,167.00,101.00,117.00,75.00,31.00,APPROVED
IL: AURORA,01/03/2011 16:37:00,,2213.00,1233.00,329.00,194.00,108.00,135.00,80.00,33.00,APPROVED
IL: AURORA,01/03/2011 17:37:00,,2236.00,1280.00,338.00,205.00,113.00,136.00,84.00,37.00,APPROVED
IL: AURORA,01/03/2011 18:37:00,,2224.00,1300.00,343.00,211.00,114.00,141.00,86.00,36.00,APPROVED
IL: AURORA,01/03/2011 19:37:00,,2222.00,1298.00,343.00,211.00,114.00,146.00,87.00,35.00,APPROVED
IL: AURORA,01/03/2011 20:38:00,,2202.00,1303.00,347.00,214.00,115.00,146.00,87.00,38.00,APPROVED
IL: AURORA,01/03/2011 21:38:00,,2220.00,1302.00,347.00,213.00,116.00,146.00,87.00,38.00,APPROVED
IL: AURORA,01/03/2011 22:38:00,,2216.00,1304.00,348.00,217.00,118.00,142.00,86.00,39.00,APPROVED
IL: AURORA,01/03/2011 23:38:00,,2206.00,1302.00,343.00,217.00,117.00,143.00,87.00,38.00,APPROVED
IL: AURORA,01/04/2011 00:39:00,,2201.00,1289.00,338.00,213.00,115.00,143.00,87.00,36.00,APPROVED
IL: AURORA,01/04/2011 01:39:00,,2191.00,1279.00,340.00,209.00,113.00,140.00,88.00,37.00,APPROVED
IL: AURORA,01/04/2011 02:39:00,,2206.00,1283.00,341.00,214.00,112.00,142.00,88.00,38.00,APPROVED
IL: AURORA,01/04/2011 03:39:00,,2207.00,1290.00,340.00,211.00,112.00,144.00,87.00,37.00,APPROVED
IL: AURORA,01/04/2011 04:39:00,,2218.00,1298.00,342.00,214.00,114.00,145.00,87.00,38.00,APPROVED
IL: AURORA,01/04/2011 05:40:00,,2228.00,1307.00,347.00,218.00,116.00,144.00,87.00,38.00,APPROVED
IL: AURORA,01/04/2011 06:40:00,,2276.00,1346.00,351.00,227.00,118.00,150.00,89.00,39.00,APPROVED
IL: AURORA,01/04/2011 07:40:00,,2339.00,1409.00,366.00,234.00,123.00,156.00,93.00,39.00,APPROVED
IL: AURORA,01/04/2011 08:40:00,,2378.00,1453.00,376.00,250.00,123.00,159.00,92.00,42.00,APPROVED
IL: AURORA,01/04/2011 09:41:00,,2398.00,1467.00,378.00,255.00,129.00,162.00,93.00,43.00,APPROVED
IL: AURORA,01/04/2011 10:41:00,,2406.00,1472.00,383.00,256.00,130.00,161.00,95.00,43.00,APPROVED
IL: AURORA,01/04/2011 11:41:00,,2392.00,1470.00,386.00,254.00,131.00,167.00,96.00,43.00,APPROVED
IL: AURORA,01/04/2011 12:41:00,,2393.00,1480.00,395.00,259.00,131.00,166.00,94.00,43.00,APPROVED
IL: AURORA,01/04/2011 13:41:00,,2497.00,1590.00,416.00,284.00,141.00,181.00,103.00,47.00,APPROVED
IL: AURORA,01/04/2011 14:42:00,,2556.00,1655.00,432.00,298.00,147.00,189.00,105.00,48.00,APPROVED
IL: AURORA,01/04/2011 15:42:00,,2511.00,1585.00,421.00,288.00,144.00,185.00,101.00,45.00,APPROVED
IL: AURORA,01/04/2011 16:42:00,,2440.00,1484.00,403.00,257.00,133.00,171.00,95.00,42.00,APPROVED
IL: AURORA,01/04/2011 17:42:00,,2422.00,1452.00,391.00,243.00,127.00,164.00,92.00,39.00,APPROVED
IL: AURORA,01/04/2011 18:43:00,,2392.00,1403.00,374.00,234.00,125.00,158.00,91.00,39.00,APPROVED
IL: AURORA,01/04/2011 19:43:00,,2346.00,1379.00,369.00,233.00,121.00,155.00,87.00,39.00,APPROVED
IL: AURORA,01/04/2011 20:43:00,,2317.00,1369.00,367.00,232.00,121.00,155.00,88.00,39.00,APPROVED
IL: AURORA,01/04/2011 21:43:00,,2272.00,1336.00,358.00,224.00,118.00,149.00,88.00,37.00,APPROVED
IL: AURORA,01/04/2011 22:43:00,,2240.00,1287.00,352.00,211.00,117.00,142.00,85.00,37.00,APPROVED
IL: AURORA,01/04/2011 23:44:00,,2227.00,1259.00,340.00,206.00,111.00,135.00,81.00,35.00,APPROVED
IL: AURORA,01/05/2011 00:44:00,,2221.00,1243.00,336.00,199.00,113.00,137.00,81.00,35.00,APPROVED
IL: AURORA,01/05/2011 01:44:00,,2229.00,1250.00,337.00,198.00,110.00,136.00,78.00,35.00,APPROVED
IL: AURORA,01/05/2011 02:44:00,,2216.00,1251.00,337.00,200.00,109.00,138.00,79.00,34.00,APPROVED
IL: AURORA,01/05/2011 03:45:00,,2219.00,1238.00,339.00,193.00,111.00,136.00,76.00,34.00,APPROVED
IL: AURORA,01/05/2011 04:45:00,,2206.00,1227.00,330.00,191.00,109.00,132.00,77.00,35.00,APPROVED
IL: AURORA,01/05/2011 05:45:00,,2198.00,1220.00,333.00,191.00,108.00,134.00,76.00,35.00,APPROVED
IL: AURORA,01/05/2011 06:45:00,,2212.00,1229.00,339.00,193.00,110.00,133.00,78.00,32.00,APPROVED
IL: AURORA,01/05/2011 07:45:00,,2237.00,1247.00,339.00,197.00,109.00,139.00,79.00,35.00,APPROVED
IL: AURORA,01/05/2011 08:46:00,,2252.00,1272.00,347.00,202.00,113.00,141.00,78.00,35.00,APPROVED
IL: AURORA,01/05/2011 09:46:00,,2263.00,1296.00,354.00,207.00,114.00,145.00,80.00,36.00,APPROVED
IL: AURORA,01/05/2011 10:46:00,,2265.00,1292.00,358.00,209.00,116.00,145.00,81.00,36.00,APPROVED
IL: AURORA,01/05/2011 11:46:00,,2280.00,1309.00,362.00,209.00,116.00,146.00,81.00,35.00,APPROVED
IL: AURORA,01/05/2011 12:47:00,,2296.00,1324.00,366.00,214.00,116.00,151.00,83.00,36.00,APPROVED
IL: AURORA,01/05/2011 13:47:00,,2326.00,1356.00,374.00,222.00,120.00,153.00,86.00,39.00,APPROVED
IL: AURORA,01/05/2011 14:47:00,,2330.00,1369.00,373.00,226.00,120.00,153.00,85.00,38.00,APPROVED
IL: AURORA,01/05/2011 15:47:00,,2318.00,1328.00,367.00,222.00,120.00,150.00,83.00,36.00,APPROVED
IL: AURORA,01/05/2011 16:47:00,,2302.00,1336.00,361.00,219.00,118.00,149.00,86.00,36.00,APPROVED
IL: AURORA,01/05/2011 17:48:00,,2288.00,1331.00,357.00,221.00,117.00,146.00,84.00,38.00,APPROVED
IL: AURORA,01/05/2011 18:48:00,,2297.00,1347.00,357.00,225.00,119.00,148.00,86.00,38.00,APPROVED
IL: AURORA,01/05/2011 19:48:00,,2334.00,1403.00,370.00,240.00,121.00,154.00,91.00,41.00,APPROVED
IL: AURORA,01/05/2011 20:48:00,,2344.00,1411.00,371.00,244.00,125.00,159.00,93.00,42.00,APPROVED
IL: AURORA,01/05/2011 21:49:00,,2307.00,1408.00,371.00,245.00,124.00,157.00,93.00,41.00,APPROVED
IL: AURORA,01/05/2011 22:49:00,,2300.00,1380.00,362.00,236.00,125.00,157.00,92.00,40.00,APPROVED
IL: AURORA,01/05/2011 23:49:00,,2259.00,1355.00,360.00,234.00,119.00,149.00,90.00,42.00,APPROVED
IL: AURORA,01/06/2011 00:49:00,,2253.00,1342.00,357.00,229.00,122.00,151.00,90.00,39.00,APPROVED
IL: AURORA,01/06/2011 01:49:00,,2245.00,1338.00,353.00,225.00,117.00,152.00,89.00,40.00,APPROVED
IL: AURORA,01/06/2011 02:50:00,,2315.00,1396.00,367.00,239.00,124.00,157.00,94.00,41.00,APPROVED
IL: AURORA,01/06/2011 03:50:00,,2358.00,1426.00,378.00,249.00,128.00,159.00,95.00,43.00,APPROVED
IL: AURORA,01/06/2011 04:50:00,,2337.00,1447.00,380.00,252.00,129.00,162.00,95.00,43.00,APPROVED
IL: AURORA,01/06/2011 05:50:00,,2364.00,1437.00,377.00,253.00,128.00,162.00,95.00,42.00,APPROVED
IL: AURORA,01/06/2011 06:51:00,,2398.00,1484.00,386.00,261.00,132.00,165.00,97.00,43.00,APPROVED
IL: AURORA,01/06/2011 07:51:00,,2408.00,1511.00,389.00,266.00,133.00,167.00,97.00,45.00,APPROVED
IL: AURORA,01/06/2011 08:51:00,,2431.00,1527.00,400.00,275.00,133.00,174.00,97.00,46.00,APPROVED
IL: AURORA,01/06/2011 09:51:00,,2435.00,1526.00,400.00,279.00,138.00,172.00,101.00,45.00,APPROVED
IL: AURORA,01/06/2011 10:51:00,,2443.00,1553.00,409.00,281.00,138.00,176.00,101.00,46.00,APPROVED
IL: AURORA,01/06/2011 11:52:00,,2467.00,1591.00,414.00,290.00,139.00,183.00,103.00,48.00,APPROVED
IL: AURORA,01/06/2011 12:52:00,,2439.00,1588.00,417.00,294.00,144.00,182.00,107.00,47.00,APPROVED
IL: AURORA,01/06/2011 13:52:00,,2398.00,1534.00,408.00,288.00,139.00,180.00,101.00,46.00,APPROVED
IL: AURORA,01/06/2011 14:52:00,,2373.00,1494.00,399.00,278.00,137.00,172.00,97.00,46.00,APPROVED
IL: AURORA,01/06/2011 15:53:00,,2388.00,1516.00,402.00,277.00,137.00,175.00,101.00,45.00,APPROVED
IL: AURORA,01/06/2011 16:53:00,,2392.00,1505.00,402.00,271.00,132.00,171.00,101.00,44.00,APPROVED
IL: AURORA,01/06/2011 17:53:00,,2291.00,1410.00,377.00,253.00,126.00,161.00,93.00,44.00,APPROVED
IL: AURORA,01/06/2011 18:53:00,,2215.00,1309.00,351.00,229.00,121.00,149.00,88.00,38.00,APPROVED
IL: AURORA,01/06/2011 19:53:00,,2184.00,1285.00,346.00,214.00,115.00,141.00,84.00,36.00,APPROVED
IL: AURORA,01/06/2011 20:54:00,,2127.00,1233.00,333.00,203.00,112.00,137.00,81.00,35.00,APPROVED
IL: AURORA,01/06/2011 21:54:00,,2079.00,1168.00,317.00,189.00,105.00,129.00,80.00,35.00,APPROVED
IL: AURORA,01/06/2011 22:54:00,,2076.00,1154.00,309.00,184.00,105.00,125.00,78.00,32.00,APPROVED
IL: AURORA,01/06/2011 23:54:00,,2119.00,1173.00,316.00,181.00,104.00,127.00,77.00,33.00,APPROVED
IL: AURORA,01/07/2011 00:55:00,,2170.00,1223.00,326.00,194.00,108.00,132.00,80.00,32.00,APPROVED
IL: AURORA,01/07/2011 01:55:00,,2184.00,1245.00,340.00,200.00,112.00,136.00,79.00,34.00,APPROVED
IL: AURORA,01/07/2011 02:55:00,,2210.00,1259.00,341.00,205.00,113.00,137.00,81.00,34.00,APPROVED
IL: AURORA,01/07/2011 03:55:00,,2226.00,1268.00,347.00,205.00,114.00,139.00,83.00,35.00,APPROVED
IL: AURORA,01/07/2011 04:55:00,,2258.00,1310.00,352.00,213.00,116.00,143.00,84.00,37.00,APPROVED
IL: AURORA,01/07/2011 05:56:00,,2267.00,1316.00,354.00,216.00,116.00,147.00,85.00,38.00,APPROVED
IL: AURORA,01/07/2011 06:56:00,,2249.00,1290.00,353.00,212.00,115.00,144.00,84.00,36.00,APPROVED
IL: AURORA,01/07/2011 07:56:00,,2230.00,1256.00,340.00,201.00,113.00,138.00,83.00,35.00,APPROVED
IL: AURORA,01/07/2011 08:56:00,,2208.00,1252.00,337.00,201.00,112.00,136.00,80.00,34.00,APPROVED
IL: AURORA,01/07/2011 09:57:00,,2217.00,1247.00,344.00,198.00,110.00,138.00,79.00,34.00,APPROVED
IL: AURORA,01/07/2011 10:57:00,,2218.00,1253.00,340.00,199.00,111.00,140.00,81.00,35.00,APPROVED
IL: AURORA,01/07/2011 11:57:00,,2249.00,1265.00,346.00,203.00,114.00,142.00,80.00,34.00,APPROVED
IL: AURORA,01/07/2011 12:57:00,,2227.00,1270.00,350.00,202.00,114.00,139.00,81.00,35.00,APPROVED
IL: AURORA,01/07/2011 13:57:00,,2237.00,1266.00,343.00,205.00,113.00,138.00,80.00,35.00,APPROVED
IL: AURORA,01/07/2011 14:11:00,,2228.00,1278.00,344.00,193.00,113.00,139.00,82.00,38.00,APPROVED
IL: AURORA,01/07/2011 15:27:00,,2163.00,1160.00,311.00,171.00,101.00,123.00,72.00,30.00,APPROVED
IL: AURORA,01/07/2011 16:27:00,,2187.00,1218.00,334.00,191.00,110.00,133.00,77.00,32.00,APPROVED
IL: AURORA,01/07/2011 17:28:00,,2157.00,1194.00,326.00,190.00,108.00,133.00,80.00,34.00,APPROVED
IL: AURORA,01/07/2011 18:28:00,,2133.00,1193.00,324.00,189.00,104.00,135.00,80.00,33.00,APPROVED
IL: AURORA,01/07/2011 19:28:00,,2121.00,1176.00,320.00,185.00,105.00,132.00,80.00,34.00,APPROVED
IL: AURORA,01/07/2011 20:28:00,,2114.00,1171.00,320.00,186.00,106.00,130.00,77.00,33.00,APPROVED
IL: AURORA,01/07/2011 21:28:00,,2149.00,1188.00,322.00,187.00,105.00,131.00,79.00,34.00,APPROVED
IL: AURORA,01/07/2011 22:29:00,,2180.00,1210.00,331.00,190.00,107.00,133.00,79.00,34.00,APPROVED
IL: AURORA,01/07/2011 23:29:00,,2167.00,1201.00,329.00,192.00,110.00,134.00,76.00,34.00,APPROVED
IL: AURORA,01/08/2011 00:29:00,,2140.00,1178.00,318.00,185.00,106.00,131.00,77.00,33.00,APPROVED
IL: AURORA,01/08/2011 01:29:00,,2113.00,1155.00,318.00,182.00,105.00,126.00,75.00,31.00,APPROVED
IL: AURORA,01/08/2011 02:30:00,,2102.00,1134.00,314.00,179.00,103.00,125.00,73.00,32.00,APPROVED
IL: AURORA,01/08/2011 03:30:00,,2092.00,1125.00,308.00,174.00,103.00,121.00,71.00,32.00,APPROVED
IL: AURORA,01/08/2011 04:30:00,,2119.00,1135.00,313.00,177.00,99.00,121.00,70.00,31.00,APPROVED
IL: AURORA,01/08/2011 05:30:00,,2093.00,1113.00,307.00,169.00,99.00,122.00,70.00,31.00,APPROVED
IL: AURORA,01/08/2011 06:30:00,,2068.00,1088.00,305.00,164.00,100.00,120.00,70.00,31.00,APPROVED
IL: AURORA,01/08/2011 07:31:00,,2054.00,1073.00,299.00,162.00,96.00,118.00,67.00,31.00,APPROVED
IL: AURORA,01/08/2011 08:31:00,,2041.00,1069.00,297.00,157.00,97.00,118.00,68.00,31.00,APPROVED
IL: AURORA,01/08/2011 09:31:00,,2040.00,1064.00,296.00,157.00,97.00,118.00,67.00,30.00,APPROVED
IL: AURORA,01/08/2011 10:31:00,,2045.00,1065.00,295.00,159.00,96.00,119.00,67.00,32.00,APPROVED
IL: AURORA,01/08/2011 11:32:00,,2040.00,1068.00,303.00,158.00,96.00,118.00,67.00,30.00,APPROVED
IL: AURORA,01/08/2011 12:32:00,,2039.00,1074.00,301.00,161.00,97.00,119.00,67.00,30.00,APPROVED
IL: AURORA,01/08/2011 13:32:00,,2055.00,1063.00,301.00,160.00,98.00,116.00,66.00,32.00,APPROVED
IL: AURORA,01/08/2011 14:32:00,,2038.00,1057.00,293.00,156.00,95.00,116.00,67.00,29.00,APPROVED
IL: AURORA,01/08/2011 15:32:00,,2033.00,1055.00,295.00,160.00,97.00,117.00,67.00,31.00,APPROVED
IL: AURORA,01/08/2011 16:33:00,,2047.00,1064.00,298.00,161.00,95.00,115.00,69.00,30.00,APPROVED
IL: AURORA,01/08/2011 17:33:00,,2050.00,1072.00,295.00,162.00,96.00,116.00,69.00,30.00,APPROVED
IL: AURORA,01/08/2011 18:33:00,,2033.00,1073.00,299.00,160.00,100.00,117.00,70.00,31.00,APPROVED
IL: AURORA,01/08/2011 19:33:00,,2027.00,1069.00,292.00,163.00,98.00,114.00,73.00,28.00,APPROVED
IL: AURORA,01/08/2011 20:34:00,,2003.00,1055.00,289.00,159.00,96.00,115.00,72.00,29.00,APPROVED
IL: AURORA,01/08/2011 21:34:00,,1988.00,1055.00,292.00,162.00,98.00,115.00,73.00,29.00,APPROVED
IL: AURORA,01/08/2011 22:34:00,,1992.00,1059.00,293.00,162.00,96.00,115.00,72.00,29.00,APPROVED
IL: AURORA,01/08/2011 23:34:00,,2024.00,1063.00,292.00,159.00,96.00,113.00,70.00,30.00,APPROVED
IL: AURORA,01/09/2011 00:34:00,,2017.00,1065.00,290.00,159.00,98.00,114.00,71.00,29.00,APPROVED
IL: AURORA,01/09/2011 01:35:00,,2030.00,1073.00,295.00,159.00,96.00,117.00,70.00,30.00,APPROVED
IL: AURORA,01/09/2011 02:35:00,,2063.00,1098.00,301.00,166.00,98.00,121.00,72.00,30.00,APPROVED
IL: AURORA,01/09/2011 03:35:00,,2082.00,1119.00,311.00,170.00,103.00,124.00,73.00,31.00,APPROVED
IL: AURORA,01/09/2011 04:35:00,,2115.00,1146.00,311.00,175.00,101.00,128.00,73.00,32.00,APPROVED
IL: AURORA,01/09/2011 05:36:00,,2112.00,1142.00,318.00,176.00,103.00,124.00,73.00,33.00,APPROVED
IL: AURORA,01/09/2011 06:36:00,,2105.00,1137.00,320.00,173.00,102.00,125.00,73.00,31.00,APPROVED
IL: AURORA,01/09/2011 07:36:00,,2096.00,1132.00,316.00,171.00,102.00,125.00,70.00,32.00,APPROVED
IL: AURORA,01/09/2011 08:36:00,,2100.00,1133.00,315.00,170.00,102.00,124.00,75.00,32.00,APPROVED
IL: AURORA,01/09/2011 09:37:00,,2105.00,1142.00,320.00,173.00,104.00,125.00,73.00,34.00,APPROVED
IL: AURORA,01/09/2011 10:37:00,,2119.00,1159.00,321.00,177.00,105.00,132.00,73.00,32.00,APPROVED
IL: AURORA,01/09/2011 11:37:00,,2135.00,1162.00,323.00,181.00,105.00,130.00,74.00,33.00,APPROVED
IL: AURORA,01/09/2011 12:37:00,,2144.00,1184.00,332.00,185.00,106.00,132.00,76.00,34.00,APPROVED
IL: AURORA,01/09/2011 13:37:00,,2164.00,1224.00,337.00,192.00,107.00,137.00,76.00,35.00,APPROVED
IL: AURORA,01/09/2011 14:38:00,,2204.00,1260.00,345.00,199.00,110.00,141.00,78.00,36.00,APPROVED
IL: AURORA,01/09/2011 15:38:00,,2212.00,1277.00,355.00,206.00,113.00,145.00,81.00,36.00,APPROVED
IL: AURORA,01/09/2011 16:38:00,,2198.00,1261.00,352.00,204.00,112.00,145.00,81.00,36.00,APPROVED
IL: AURORA,01/09/2011 17:38:00,,2129.00,1241.00,345.00,209.00,113.00,143.00,85.00,36.00,APPROVED
IL: AURORA,01/09/2011 18:39:00,,2054.00,1204.00,329.00,205.00,112.00,139.00,84.00,36.00,APPROVED
IL: AURORA,01/09/2011 19:39:00,,1961.00,1139.00,316.00,189.00,108.00,131.00,80.00,35.00,APPROVED
IL: AURORA,01/09/2011 20:39:00,,1843.00,1069.00,306.00,179.00,101.00,125.00,78.00,33.00,APPROVED
IL: AURORA,01/09/2011 21:39:00,,1823.00,1056.00,297.00,179.00,100.00,124.00,80.00,32.00,APPROVED
IL: AURORA,01/09/2011 22:39:00,,1893.00,1081.00,300.00,174.00,103.00,124.00,77.00,33.00,APPROVED
IL: AURORA,01/09/2011 23:40:00,,1975.00,1114.00,307.00,179.00,100.00,121.00,77.00,33.00,APPROVED
IL: AURORA,01/10/2011 00:40:00,,2012.00,1137.00,313.00,184.00,103.00,128.00,80.00,34.00,APPROVED
IL: AURORA,01/10/2011 01:40:00,,2061.00,1194.00,321.00,194.00,109.00,133.00,82.00,34.00,APPROVED
IL: AURORA,01/10/2011 02:40:00,,2106.00,1240.00,338.00,204.00,113.00,143.00,84.00,35.00,APPROVED
IL: AURORA,01/10/2011 03:41:00,,2108.00,1290.00,348.00,224.00,119.00,149.00,87.00,39.00,APPROVED
IL: AURORA,01/10/2011 04:41:00,,2105.00,1315.00,352.00,237.00,122.00,154.00,91.00,41.00,APPROVED
IL: AURORA,01/10/2011 05:41:00,,2149.00,1364.00,365.00,251.00,128.00,161.00,96.00,40.00,APPROVED
IL: AURORA,01/10/2011 06:41:00,,2185.00,1431.00,381.00,262.00,130.00,171.00,99.00,44.00,APPROVED
IL: AURORA,01/10/2011 07:41:00,,2220.00,1487.00,397.00,286.00,138.00,179.00,101.00,46.00,APPROVED
IL: AURORA,01/10/2011 08:42:00,,2150.00,1422.00,390.00,271.00,132.00,173.00,102.00,46.00,APPROVED
IL: AURORA,01/10/2011 09:42:00,,2121.00,1377.00,371.00,261.00,131.00,169.00,96.00,44.00,APPROVED
IL: AURORA,01/10/2011 10:42:00,,2121.00,1375.00,372.00,253.00,131.00,165.00,97.00,44.00,APPROVED
IL: AURORA,01/10/2011 11:42:00,,2199.00,1448.00,394.00,270.00,132.00,172.00,101.00,46.00,APPROVED
IL: AURORA,01/10/2011 12:43:00,,2166.00,1417.00,389.00,267.00,131.00,175.00,99.00,46.00,APPROVED
IL: AURORA,01/10/2011 13:43:00,,2164.00,1374.00,375.00,252.00,129.00,163.00,94.00,43.00,APPROVED
IL: AURORA,01/10/2011 14:13:00,,2136.00,1335.00,362.00,242.00,125.00,157.00,93.00,41.00,APPROVED
IL: AURORA,01/10/2011 15:28:00,,2047.00,1089.00,293.00,166.00,97.00,119.00,75.00,30.00,APPROVED
IL: AURORA,01/10/2011 16:29:00,,2047.00,1115.00,304.00,170.00,100.00,123.00,73.00,30.00,APPROVED
IL: AURORA,01/10/2011 17:29:00,,2007.00,1084.00,295.00,168.00,98.00,120.00,75.00,31.00,APPROVED
IL: AURORA,01/10/2011 18:29:00,,1962.00,1074.00,290.00,164.00,99.00,118.00,76.00,29.00,APPROVED
IL: AURORA,01/10/2011 19:29:00,,1925.00,1062.00,289.00,162.00,98.00,119.00,75.00,29.00,APPROVED
IL: AURORA,01/10/2011 20:29:00,,1933.00,1056.00,287.00,160.00,96.00,114.00,76.00,30.00,APPROVED
IL: AURORA,01/10/2011 21:30:00,,1948.00,1057.00,291.00,161.00,96.00,116.00,72.00,29.00,APPROVED
IL: AURORA,01/10/2011 22:30:00,,1959.00,1061.00,288.00,159.00,96.00,117.00,73.00,31.00,APPROVED
IL: AURORA,01/10/2011 23:30:00,,1973.00,1062.00,287.00,158.00,95.00,117.00,75.00,29.00,APPROVED
IL: AURORA,01/11/2011 00:30:00,,1980.00,1066.00,292.00,161.00,96.00,117.00,73.00,29.00,APPROVED
IL: AURORA,01/11/2011 01:31:00,,2007.00,1075.00,293.00,161.00,96.00,115.00,74.00,29.00,APPROVED
IL: AURORA,01/11/2011 02:31:00,,1997.00,1077.00,293.00,165.00,99.00,118.00,74.00,29.00,APPROVED
IL: AURORA,01/11/2011 03:31:00,,2019.00,1079.00,292.00,164.00,98.00,117.00,76.00,29.00,APPROVED
IL: AURORA,01/11/2011 04:31:00,,2007.00,1087.00,299.00,167.00,98.00,118.00,73.00,30.00,APPROVED
IL: AURORA,01/11/2011 05:31:00,,2009.00,1082.00,295.00,170.00,100.00,115.00,74.00,29.00,APPROVED
IL: AURORA,01/11/2011 06:32:00,,2005.00,1074.00,294.00,161.00,98.00,118.00,74.00,30.00,APPROVED
IL: AURORA,01/11/2011 07:32:00,,2025.00,1086.00,292.00,163.00,96.00,116.00,72.00,30.00,APPROVED
IL: AURORA,01/11/2011 08:32:00,,2029.00,1082.00,295.00,162.00,96.00,117.00,74.00,30.00,APPROVED
IL: AURORA,01/11/2011 09:32:00,,2028.00,1092.00,298.00,165.00,98.00,118.00,75.00,30.00,APPROVED
IL: AURORA,01/11/2011 10:33:00,,2041.00,1105.00,303.00,166.00,98.00,118.00,73.00,29.00,APPROVED
IL: AURORA,01/11/2011 11:33:00,,2071.00,1124.00,305.00,168.00,101.00,121.00,74.00,30.00,APPROVED
IL: AURORA,01/11/2011 12:33:00,,2094.00,1130.00,305.00,174.00,100.00,122.00,73.00,30.00,APPROVED
IL: AURORA,01/11/2011 13:33:00,,2068.00,1112.00,299.00,169.00,99.00,118.00,73.00,31.00,APPROVED
IL: AURORA,01/11/2011 14:33:00,,2052.00,1097.00,301.00,165.00,98.00,122.00,73.00,31.00,APPROVED
IL: AURORA,01/11/2011 15:34:00,,2041.00,1102.00,305.00,166.00,97.00,118.00,73.00,28.00,APPROVED
IL: AURORA,01/11/2011 16:34:00,,2045.00,1090.00,301.00,164.00,97.00,115.00,72.00,30.00,APPROVED
IL: AURORA,01/11/2011 17:34:00,,2038.00,1092.00,290.00,163.00,97.00,117.00,71.00,29.00,APPROVED
IL: AURORA,01/11/2011 18:34:00,,2032.00,1094.00,300.00,167.00,97.00,116.00,72.00,29.00,APPROVED
IL: AURORA,01/11/2011 19:35:00,,2011.00,1079.00,296.00,166.00,95.00,114.00,74.00,31.00,APPROVED
IL: AURORA,01/11/2011 20:35:00,,2002.00,1066.00,293.00,162.00,94.00,116.00,71.00,28.00,APPROVED
IL: AURORA,01/11/2011 21:35:00,,1974.00,1054.00,286.00,154.00,93.00,114.00,71.00,28.00,APPROVED
IL: AURORA,01/11/2011 22:35:00,,1972.00,1048.00,285.00,156.00,93.00,112.00,69.00,29.00,APPROVED
IL: AURORA,01/11/2011 23:36:00,,1994.00,1050.00,286.00,158.00,93.00,113.00,69.00,29.00,APPROVED
IL: AURORA,01/12/2011 00:36:00,,1994.00,1052.00,286.00,155.00,96.00,113.00,70.00,30.00,APPROVED
IL: AURORA,01/12/2011 01:36:00,,2001.00,1071.00,290.00,163.00,95.00,113.00,70.00,30.00,APPROVED
IL: AURORA,01/12/2011 02:36:00,,2014.00,1067.00,293.00,166.00,97.00,117.00,71.00,30.00,APPROVED
IL: AURORA,01/12/2011 03:36:00,,2024.00,1078.00,293.00,163.00,96.00,117.00,72.00,30.00,APPROVED
IL: AURORA,01/12/2011 04:37:00,,1988.00,1059.00,287.00,159.00,95.00,114.00,68.00,29.00,APPROVED
IL: AURORA,01/12/2011 05:37:00,,1997.00,1052.00,284.00,158.00,97.00,114.00,71.00,29.00,APPROVED
IL: AURORA,01/12/2011 06:37:00,,2000.00,1059.00,286.00,159.00,93.00,112.00,68.00,29.00,APPROVED
IL: AURORA,01/12/2011 07:37:00,,2003.00,1068.00,294.00,160.00,94.00,115.00,68.00,29.00,APPROVED
IL: AURORA,01/12/2011 08:38:00,,2003.00,1059.00,291.00,160.00,98.00,112.00,70.00,30.00,APPROVED
IL: AURORA,01/12/2011 09:38:00,,2025.00,1063.00,294.00,160.00,95.00,116.00,71.00,30.00,APPROVED
IL: AURORA,01/12/2011 10:38:00,,2045.00,1096.00,296.00,169.00,97.00,119.00,71.00,31.00,APPROVED
IL: AURORA,01/12/2011 11:38:00,,2048.00,1090.00,296.00,171.00,96.00,117.00,72.00,29.00,APPROVED
IL: AURORA,01/12/2011 12:38:00,,2031.00,1070.00,288.00,165.00,98.00,118.00,70.00,31.00,APPROVED
IL: AURORA,01/12/2011 13:39:00,,2006.00,1065.00,289.00,162.00,96.00,117.00,70.00,29.00,APPROVED
IL: AURORA,01/12/2011 14:39:00,,2002.00,1055.00,293.00,160.00,91.00,113.00,71.00,30.00,APPROVED
IL: AURORA,01/12/2011 15:39:00,,1997.00,1049.00,286.00,158.00,95.00,112.00,70.00,29.00,APPROVED
IL: AURORA,01/12/2011 16:39:00,,1986.00,1045.00,285.00,158.00,92.00,110.00,67.00,28.00,APPROVED
IL: AURORA,01/12/2011 17:40:00,,1972.00,1037.00,284.00,155.00,95.00,109.00,68.00,29.00,APPROVED
IL: AURORA,01/12/2011 18:40:00,,1956.00,1032.00,281.00,154.00,91.00,112.00,71.00,29.00,APPROVED
IL: AURORA,01/12/2011 19:40:00,,1941.00,1022.00,278.00,153.00,92.00,110.00,69.00,28.00,APPROVED
IL: AURORA,01/12/2011 20:40:00,,1933.00,1011.00,279.00,151.00,91.00,109.00,69.00,27.00,APPROVED
IL: AURORA,01/12/2011 21:40:00,,1947.00,1024.00,278.00,152.00,93.00,111.00,69.00,29.00,APPROVED
IL: AURORA,01/12/2011 22:41:00,,1938.00,1024.00,278.00,155.00,89.00,110.00,69.00,30.00,APPROVED
IL: AURORA,01/12/2011 23:41:00,,1949.00,1027.00,280.00,151.00,92.00,110.00,70.00,29.00,APPROVED
IL: AURORA,01/13/2011 00:41:00,,1948.00,1022.00,282.00,148.00,91.00,108.00,68.00,28.00,APPROVED
IL: AURORA,01/13/2011 01:41:00,,1998.00,1050.00,286.00,157.00,91.00,114.00,68.00,30.00,APPROVED
IL: AURORA,01/13/2011 02:42:00,,2018.00,1079.00,293.00,165.00,94.00,113.00,73.00,29.00,APPROVED
IL: AURORA,01/13/2011 03:42:00,,2033.00,1105.00,301.00,169.00,97.00,120.00,70.00,30.00,APPROVED
IL: AURORA,01/13/2011 04:42:00,,2053.00,1117.00,305.00,175.00,99.00,120.00,71.00,31.00,APPROVED
IL: AURORA,01/13/2011 05:42:00,,2081.00,1144.00,309.00,184.00,104.00,127.00,73.00,32.00,APPROVED
IL: AURORA,01/13/2011 06:42:00,,2112.00,1183.00,321.00,190.00,105.00,130.00,77.00,34.00,APPROVED
IL: AURORA,01/13/2011 07:43:00,,2120.00,1187.00,322.00,194.00,107.00,133.00,76.00,34.00,APPROVED
IL: AURORA,01/13/2011 08:43:00,,2155.00,1219.00,325.00,197.00,109.00,134.00,78.00,33.00,APPROVED
IL: AURORA,01/13/2011 09:43:00,,2182.00,1261.00,333.00,206.00,112.00,137.00,80.00,35.00,APPROVED
IL: AURORA,01/13/2011 10:43:00,,2232.00,1316.00,352.00,223.00,115.00,146.00,85.00,37.00,APPROVED
IL: AURORA,01/13/2011 11:44:00,,2264.00,1350.00,363.00,230.00,121.00,152.00,87.00,39.00,APPROVED
IL: AURORA,01/13/2011 12:44:00,,2262.00,1354.00,365.00,232.00,121.00,156.00,84.00,40.00,APPROVED
IL: AURORA,01/13/2011 13:44:00,,2283.00,1389.00,368.00,243.00,122.00,157.00,86.00,39.00,APPROVED
IL: AURORA,01/13/2011 14:44:00,,2304.00,1405.00,379.00,243.00,123.00,164.00,90.00,40.00,APPROVED
IL: AURORA,01/13/2011 15:44:00,,2313.00,1420.00,385.00,248.00,123.00,164.00,91.00,40.00,APPROVED
IL: AURORA,01/13/2011 16:45:00,,2330.00,1424.00,379.00,251.00,127.00,163.00,93.00,41.00,APPROVED
IL: AURORA,01/13/2011 17:45:00,,2331.00,1423.00,381.00,259.00,128.00,167.00,92.00,42.00,APPROVED
IL: AURORA,01/13/2011 18:45:00,,2287.00,1393.00,371.00,247.00,125.00,158.00,90.00,40.00,APPROVED
IL: AURORA,01/13/2011 19:45:00,,2246.00,1339.00,360.00,233.00,119.00,150.00,86.00,37.00,APPROVED